This is the latest recevied weather packets stored in our database for station/object KB9VKQ-13. If no packets are shown the sender has not sent any weather packets the latest 10 day(s).
| Time | Temp. | Humidity | Pressure | Rain* | Wind** | Luminosity | Snow |
|---|---|---|---|---|---|---|---|
| 1777309885 | 16.67° C | - | 0 hPa | 0 mm | - | - | - |
| 1777309285 | 18.89° C | - | 0 hPa | 0 mm | - | - | - |
| 1777308655 | 18.89° C | - | 0 hPa | 0 mm | - | - | - |
| 1777308055 | 18.89° C | - | 0 hPa | 0 mm | - | - | - |
| 1777307425 | 18.33° C | - | 0 hPa | 0 mm | - | - | - |
| 1777306795 | 18.33° C | - | 0 hPa | 0 mm | - | - | - |
| 1777306195 | 18.89° C | - | 0 hPa | 0.25 mm | - | - | - |
| 1777305595 | 18.89° C | - | 0 hPa | 0.25 mm | - | - | - |
| 1777304965 | 18.89° C | - | 0 hPa | 0.51 mm | - | - | - |
| 1777304365 | 18.89° C | - | 0 hPa | 1.52 mm | - | - | - |
| 1777303735 | 18.89° C | - | 0 hPa | 1.52 mm | - | - | - |
| 1777303135 | 18.33° C | - | 0 hPa | 1.52 mm | - | - | - |
| 1777302505 | 17.78° C | - | 0 hPa | 1.27 mm | - | - | - |
| 1777301875 | 17.22° C | - | 0 hPa | 1.52 mm | - | - | - |
| 1777301245 | 17.78° C | - | 0 hPa | 3.81 mm | - | - | - |
| 1777300645 | 17.22° C | - | 0 hPa | 4.06 mm | - | - | - |
| 1777300015 | 17.22° C | - | 0 hPa | 4.06 mm | - | - | - |
| 1777299385 | 17.22° C | - | 0 hPa | 4.57 mm | - | - | - |
| 1777298785 | 17.22° C | - | 0 hPa | 5.08 mm | - | - | - |
| 1777298155 | 17.22° C | - | 0 hPa | 4.83 mm | - | - | - |
| 1777297525 | 16.67° C | - | 0 hPa | 1.27 mm | - | - | - |
| 1777296924 | 16.67° C | - | 0 hPa | 1.02 mm | - | - | - |
| 1777296325 | 15.56° C | - | 0 hPa | 1.27 mm | - | - | - |
| 1777295695 | 15.56° C | - | 0 hPa | 0.76 mm | - | - | - |
| 1777295065 | 15.56° C | - | 0 hPa | 0.25 mm | - | - | - |
* Rain latest hour (hover to see other rain measurements)
** Current wind speed in m/s (hover to see current wind gust speed)